Location: Poughquag
(41.6090°N, 73.6820°W)
Time: 19:59:16
(UTC-05:00)

ISS - Visible Passes

Search period start: 17 January 2019 00:00
Search period end: 27 January 2019 00:00
Orbit: 404 x 407 km, 51.6° (Epoch: 18 January)

Date Brightness Start Highest point End Pass type
(mag) Time Alt. Az. Time Alt. Az. Time Alt. Az.
20 Jan -1.4 18:11:08 10° SSE 18:11:53 11° SE 18:11:53 11° SE visible
21 Jan -2.5 18:53:11 10° SW 18:55:15 33° SSW 18:55:15 33° SSW visible
22 Jan -2.6 18:01:46 10° SSW 18:04:34 27° SE 18:05:48 21° E visible
22 Jan -0.6 19:37:52 10° W 19:38:30 14° W 19:38:30 14° W visible
23 Jan -3.6 18:45:43 10° WSW 18:48:58 65° NNW 18:48:58 65° NNW visible
24 Jan -3.8 17:53:47 10° SW 17:57:02 67° SE 17:59:22 18° ENE visible
24 Jan -0.9 19:31:05 10° WNW 19:32:03 16° WNW 19:32:03 16° WNW visible
25 Jan -2.5 18:38:39 10° W 18:41:40 32° NNW 18:42:22 29° N visible
26 Jan -3.2 17:46:23 10° WSW 17:49:36 52° NNW 17:52:36 11° NE visible
26 Jan -0.9 19:24:25 10° NW 19:25:17 14° NW 19:25:17 14° NW visible
